Location: Mascot Post Office (historical)
(40.2645°N, 99.5462°W)
Time: 02:38:06
(UTC+00:00)

CSL-04 DEB - Pass Details

Date: 14 July 2020
Orbit: 545 x 628 km, 98.7° (Epoch: 14 August)

Event Time Altitude Azimuth Distance (km) Brightness Sun altitude
Exits shadow 09:50:18 - 163° (SSE) 2,523 7.4 -14.5°
Reaches altitude 10° 09:51:45 10° 163° (SSE) 1,917 6.8 -14.3°
Maximum altitude 09:55:54 84° 77° (ENE) 590 4.5 -13.8°
Drops below altitude 10° 09:59:59 10° 348° (NNW) 1,881 7.5 -13.2°
Sets 10:02:06 0° 348° (NNW) 2,770 8.4 -12.9°
